Temperature
9 9 9 9 9 9 8 8 9 10 10 11 11 10 11 11 10 10 9 9 8 8 8 8 7 7 7 7 7 7 7 7 7 7 6 6 6 6 6 5 5 5 5 5
7 8 8 8 8 9 9 9 9 9 10 11 11 12 11 11 10 10 9 9 8 8 8 8 7 7 7 7 7 7 7 7 6 6 6 6 6 5 5 5 5 5 5 5
6 9 8 7 9 9 9 9 10 9 10 11 10 10 10 10 10 10 9 9 8 8 8 7 7 7 7 7 7 7 6 6 6 6 5 5 5 5 5 5 4 4 4 4
6 7 7 10 10 10 10 10 10 10 10 10 10 10 10 10 9 9 9 9 8 8 7 7 7 7 7 7 7 6 6 6 5 5 5 5 5 4 4 4 4 4 4 4
6 6 8 10 9 9 9 9 10 9 9 10 10 9 9 10 9 9 9 8 8 8 7 7 7 7 7 6 6 6 6 5 5 5 4 4 4 4 4 4 4 3 3 3
6 7 8 10 9 9 9 8 9 9 9 9 8 6 7 9 9 8 8 8 8 7 7 7 6 6 6 6 6 5 5 5 5 4 4 4 4 4 3 3 3 3 3 3
5 6 7 9 8 8 8 8 9 9 9 8 8 7 8 8 8 8 8 7 7 7 7 6 6 6 6 6 5 5 5 4 4 4 4 3 3 3 3 3 3 3 3 2
5 5 6 7 7 7 8 9 9 9 8 8 8 8 8 7 7 7 7 7 7 6 6 6 6 5 5 5 5 5 4 4 4 3 3 3 3 3 3 2 2 2 2 2
6 7 9 8 8 9 9 8 8 8 8 8 7 7 7 7 7 6 6 6 6 6 6 5 5 5 5 5 4 4 4 4 3 3 3 3 3 2 2 2 2 2 1 1
6 7 8 9 9 8 8 8 8 8 7 7 7 7 7 6 6 6 6 6 6 5 5 5 5 5 4 4 4 4 3 3 3 3 3 2 2 2 2 1 1 1 1 1
5 6 7 8 8 8 7 7 7 7 7 6 6 6 6 6 6 6 5 5 5 5 5 5 4 4 4 4 3 3 3 3 2 2 2 2 2 2 1 1 1 0 0 -0
5 7 6 7 7 7 7 6 6 6 6 6 5 5 5 5 5 5 5 5 5 4 4 4 4 4 4 3 3 3 2 2 2 2 2 2 1 1 1 1 0 0 -0 -1
7 7 7 6 6 6 6 6 5 5 5 5 5 5 4 4 4 4 4 4 4 4 4 4 4 3 3 3 2 2 2 2 2 2 1 1 1 1 0 0 0 -0 -1 -1
6 6 5 5 5 5 5 5 5 4 4 4 4 4 4 4 4 4 4 4 4 3 3 3 3 3 3 2 2 2 2 1 1 1 1 1 0 -0 -0 -0 -0 -0 -1 -1
5 5 4 4 4 4 4 4 4 4 4 4 4 4 3 3 3 3 3 3 3 3 3 3 3 2 2 2 2 1 1 1 1 1 0 -0 -0 -1 -1 -1 -1 -1 -1 -2
4 4 4 3 3 3 3 3 3 3 3 3 3 3 3 3 3 3 3 2 2 2 2 2 2 2 2 1 1 1 1 0 0 -0 -0 -1 -1 -1 -1 -1 -2 -2 -2 -2
3 3 2 2 2 2 2 2 2 2 2 2 2 2 2 2 2 2 2 2 2 2 2 2 1 1 1 1 1 0 0 -0 -0 -1 -1 -1 -1 -2 -2 -2 -2 -2 -3 -3
2 2 2 1 1 2 2 2 2 2 2 2 2 2 2 2 2 2 1 1 1 1 1 1 1 1 1 0 0 -0 -0 -1 -1 -1 -1 -2 -2 -2 -2 -3 -3 -3 -3 -4
1 1 1 1 1 1 1 1 1 1 1 1 1 1 1 1 1 1 1 1 1 1 1 1 0 0 0 -0 -0 -1 -1 -1 -1 -2 -2 -2 -3 -3 -3 -3 -3 -4 -4 -4
0 0 0 0 0 0 1 1 0 1 1 1 1 0 0 1 0 0 0 0 0 0 0 -0 -0 -0 -1 -1 -1 -1 -2 -2 -2 -2 -2 -3 -3 -3 -3 -4 -4 -4 -4 -4
-0 -0 -0 -0 -0 -0 0 0 -0 0 0 -0 -0 -0 -0 -0 -0 -0 -0 -0 -0 -1 -1 -1 -1 -1 -1 -1 -2 -2 -2 -2 -3 -3 -3 -3 -3 -4 -4 -4 -4 -5 -5 -5
-1 -1 -1 -1 -1 -1 -1 -1 -1 -1 -1 -1 -1 -1 -1 -1 -1 -1 -1 -1 -1 -1 -1 -1 -2 -2 -2 -2 -2 -3 -3 -3 -3 -3 -3 -4 -4 -4 -4 -4 -5 -5 -5 -5
-1 -1 -1 -1 -1 -1 -1 -1 -1 -1 -1 -1 -1 -1 -1 -1 -1 -1 -1 -1 -1 -2 -2 -2 -2 -2 -3 -3 -3 -3 -3 -4 -4 -4 -4 -4 -4 -4 -5 -5 -5 -5 -6 -6
-1 -2 -2 -2 -2 -2 -2 -2 -2 -2 -2 -2 -1 -1 -2 -2 -2 -2 -2 -2 -2 -2 -2 -2 -3 -3 -3 -3 -3 -4 -4 -4 -4 -4 -4 -5 -5 -5 -5 -6 -6 -6 -6 -6
-2 -2 -2 -2 -2 -2 -2 -2 -2 -2 -2 -2 -2 -2 -2 -2 -2 -2 -2 -2 -3 -3 -3 -3 -3 -3 -4 -4 -4 -4 -4 -5 -5 -5 -5 -5 -5 -6 -6 -6 -6 -6 -6 -6
-2 -2 -2 -2 -3 -3 -3 -3 -3 -3 -3 -3 -3 -3 -3 -3 -3 -3 -3 -3 -3 -3 -4 -4 -4 -4 -4 -4 -5 -5 -5 -5 -5 -5 -6 -6 -6 -6 -6 -6 -6 -6 -7 -7
-3 -3 -3 -3 -3 -3 -3 -3 -3 -3 -4 -4 -3 -3 -4 -4 -4 -4 -4 -4 -4 -4 -4 -4 -4 -4 -5 -5 -5 -5 -5 -6 -6 -6 -6 -6 -6 -6 -7 -7 -7 -7 -7 -7
Wind_Speed
9 9 8 10 11 9 9 9 8 7 8 8 4 2 2 3 3 3 4 4 5 5 4 4 4 4 5 5 5 4 3 3 3 2 2 2 1 2 2 2 2 2 2 3
8 8 9 12 13 12 12 12 13 13 14 8 3 1 1 3 3 4 4 4 5 5 5 5 5 5 5 5 5 4 4 3 2 2 2 2 2 2 2 2 2 2 3 3
6 5 8 9 9 9 7 7 7 10 9 4 3 3 3 3 3 4 5 5 5 5 4 5 5 5 5 5 4 4 4 3 3 3 2 2 2 2 3 3 3 3 3 3
5 6 7 6 2 2 5 7 8 8 6 4 3 3 2 2 3 3 3 4 4 4 4 4 4 4 4 5 5 4 4 3 3 3 2 2 2 3 3 2 2 3 3 4
3 5 9 6 2 1 2 6 5 6 6 4 2 4 4 3 2 2 2 2 3 4 3 4 5 5 5 5 4 4 4 3 3 3 3 3 3 3 3 2 3 3 3 4
4 5 6 3 2 3 2 5 2 1 3 2 1 2 4 2 1 1 1 1 2 3 3 4 4 5 5 4 4 4 4 4 3 3 3 4 4 3 2 2 3 3 4 4
7 7 7 3 3 3 1 3 1 2 2 1 3 4 2 1 1 1 1 1 2 3 3 4 5 5 5 4 5 4 3 3 3 3 3 3 3 3 3 3 3 4 5 5
5 7 8 3 4 4 4 2 2 2 2 3 3 2 2 1 1 1 1 1 2 3 3 3 5 5 5 5 4 4 3 3 3 3 3 3 3 3 3 3 4 4 4 5
7 8 3 5 5 4 3 4 4 3 4 3 4 4 3 3 3 2 2 2 2 3 3 3 5 5 5 4 4 4 3 3 3 3 3 3 3 3 3 3 3 4 3 4
7 8 7 6 6 6 5 6 6 4 4 4 5 5 5 4 3 3 3 3 3 4 4 4 4 5 5 4 4 4 4 4 3 3 3 3 3 3 3 3 4 4 4 5
9 9 9 8 6 6 5 5 6 6 5 5 6 6 5 5 5 4 3 3 4 4 5 5 5 5 4 4 4 4 4 4 3 4 3 3 3 4 4 5 5 5 5 4
10 7 6 7 5 5 5 6 6 6 6 5 5 6 6 5 4 4 4 3 4 5 5 5 5 5 5 5 5 5 4 4 3 3 3 3 3 4 6 7 8 9 9 8
11 9 8 8 7 6 6 6 6 6 6 6 5 5 5 4 4 3 3 4 5 5 5 5 5 5 5 5 5 5 5 5 3 3 3 3 3 4 5 6 8 9 10 11
8 8 9 8 7 7 6 6 5 6 6 6 5 4 4 4 3 4 4 5 5 4 5 5 5 6 5 5 5 5 5 5 4 4 4 4 4 4 4 5 6 5 7 10
8 7 8 7 6 6 5 5 5 6 6 6 4 4 4 4 5 5 4 3 3 4 4 5 5 5 4 5 5 5 4 4 4 4 3 4 4 4 4 5 5 6 5 5
7 6 6 6 7 7 6 5 6 7 6 6 5 5 5 5 4 4 3 3 4 5 5 5 6 5 4 5 5 4 4 6 5 3 3 4 4 4 4 5 5 6 6 5
6 6 6 7 7 7 6 6 6 6 6 6 6 5 4 3 3 3 3 4 4 5 4 5 5 4 4 5 5 4 3 4 5 4 4 4 4 5 5 5 6 6 6 6
4 5 5 5 5 6 6 6 6 5 5 5 4 3 3 4 5 5 4 3 3 3 4 4 4 4 4 4 4 3 3 3 4 4 4 4 5 5 5 5 6 7 6 7
4 5 6 6 5 5 5 6 6 5 4 3 3 3 4 4 4 3 3 3 4 5 4 3 4 3 4 4 4 3 3 4 4 4 4 6 6 5 5 6 6 6 6 6
4 5 5 5 5 5 5 5 5 4 3 3 3 3 3 3 3 2 2 4 5 4 3 3 3 3 3 4 4 3 3 4 4 4 4 5 5 6 6 6 6 6 6 6
5 5 4 4 5 5 4 4 4 4 4 3 3 3 4 4 3 2 3 4 4 3 2 3 3 3 3 3 4 3 3 4 5 5 5 5 5 6 6 6 6 7 7 7
4 4 4 4 4 5 4 3 3 4 3 3 3 3 3 3 3 3 4 4 4 3 2 2 3 4 4 4 3 4 4 5 5 5 5 5 5 6 6 7 7 7 7 7
4 4 4 4 4 5 5 4 3 3 3 3 3 3 4 4 3 3 4 3 2 3 2 3 4 6 6 4 3 4 5 5 5 5 5 6 6 6 6 7 7 7 6 6
4 4 4 4 3 3 4 5 4 3 3 3 3 3 3 3 3 3 3 4 4 4 3 4 7 7 6 3 4 4 5 5 5 5 5 6 6 6 6 7 7 6 6 7
4 4 4 4 4 4 4 4 3 3 3 3 3 3 2 2 3 3 2 3 4 4 3 5 7 7 5 3 4 5 5 6 6 5 5 5 6 6 6 6 6 6 6 6
4 4 4 4 3 3 3 3 3 3 3 3 3 3 2 2 2 2 2 3 3 5 4 3 4 5 4 4 5 5 5 6 7 6 5 6 6 6 6 6 7 6 6 6
3 3 3 3 3 3 3 3 3 3 3 3 4 3 2 2 2 2 3 3 3 3 3 3 3 4 4 4 5 5 5 5 5 5 5 5 5 5 6 6 6 5 5 5
Wind_Direction
278 286 285 274 266 250 237 236 246 263 271 275 276 251 199 184 182 175 172 173 172 173 169 162 158 159 158 154 149 151 161 172 184 174 168 175 190 204 204 206 217 219 227 238
282 266 269 273 263 252 249 246 250 266 274 275 271 279 211 188 193 197 191 186 180 176 170 168 168 167 158 156 155 156 167 177 172 171 176 181 197 208 216 225 227 225 229 234
282 297 303 275 251 226 223 225 232 247 256 273 273 260 246 226 213 212 205 193 188 185 181 174 171 162 163 163 156 162 172 170 169 179 188 197 202 215 227 230 230 234 235 235
285 311 263 252 327 250 238 252 244 255 276 299 299 295 267 247 242 233 210 189 185 180 176 166 158 154 153 151 156 166 172 175 177 181 194 204 211 229 236 235 236 240 243 244
258 274 274 267 244 216 249 280 251 247 270 287 334 334 298 262 237 251 233 197 178 170 166 152 147 147 145 154 161 171 183 186 185 184 199 210 223 237 240 242 253 252 252 254
244 256 261 268 103 50 15 284 318 307 298 310 26 296 279 323 345 326 357 164 152 146 140 142 145 143 152 169 175 189 192 187 183 189 204 217 224 234 239 239 251 262 266 260
238 250 265 268 133 117 213 268 354 351 316 278 247 244 268 349 15 358 344 143 140 139 150 160 152 150 169 180 193 190 174 173 185 199 210 220 226 230 234 240 254 263 267 268
210 229 252 185 143 198 252 281 288 294 282 268 267 279 293 283 256 227 233 200 160 155 164 162 159 164 179 194 187 162 161 181 203 213 216 216 226 237 237 237 251 265 272 279
215 229 258 189 224 255 293 294 290 288 290 276 275 274 276 269 252 235 221 214 187 175 176 177 173 172 187 194 165 159 175 202 217 219 222 223 230 240 247 245 248 260 266 274
272 270 281 267 268 278 279 277 283 283 282 274 269 270 273 269 257 242 225 208 196 183 188 199 191 186 189 178 164 169 195 213 216 220 231 232 234 235 239 245 251 257 263 270
267 277 289 275 268 277 283 283 287 282 273 263 263 267 265 264 254 235 218 208 197 197 202 208 198 191 185 177 170 186 206 214 218 222 229 236 237 235 242 241 238 248 252 255
256 265 272 286 304 302 282 280 283 285 283 273 259 264 264 259 250 234 217 207 208 209 209 208 200 197 194 186 182 190 209 217 217 220 228 236 252 273 260 255 263 263 262 263
262 276 277 281 289 291 285 283 279 274 275 277 271 261 259 259 255 236 220 215 216 214 210 207 204 204 201 193 191 199 210 215 215 218 225 236 245 257 281 287 274 270 271 273
273 279 276 277 280 283 280 281 284 282 279 275 271 265 258 254 250 232 227 224 220 214 212 208 207 212 205 192 194 205 210 214 215 219 224 232 240 247 255 272 288 287 277 276
270 264 266 279 285 288 284 280 282 281 280 279 275 264 251 245 244 239 231 221 214 217 222 215 215 219 202 187 194 205 210 216 219 221 223 232 240 248 255 262 269 278 284 285
278 275 271 273 275 274 271 266 267 273 274 270 266 261 252 243 241 237 225 207 210 225 227 223 226 223 196 190 197 206 215 223 224 222 228 236 241 247 255 260 266 270 273 275
279 278 276 275 273 274 270 264 262 266 270 266 261 259 254 246 242 239 236 229 226 231 231 226 230 222 201 196 198 206 213 221 224 227 231 237 243 248 254 259 263 267 268 270
281 279 279 277 278 282 283 279 273 270 266 263 265 258 247 241 244 247 244 238 239 252 248 235 222 206 200 199 200 203 209 215 219 226 237 242 249 248 252 258 262 268 274 278
309 301 300 297 289 280 278 280 280 276 272 265 257 255 252 250 248 244 233 224 234 250 256 233 208 200 208 211 207 204 210 221 234 240 242 253 258 251 253 258 262 265 270 273
306 304 303 303 300 289 285 287 288 286 281 266 259 263 264 259 244 231 222 236 240 239 237 226 209 210 215 216 215 208 215 227 240 246 245 244 249 254 256 260 263 266 268 269
309 311 309 304 302 297 286 283 285 285 284 266 244 249 260 265 248 228 230 260 263 236 218 219 212 213 214 220 224 218 227 235 243 246 248 250 253 257 259 261 265 269 271 272
304 303 300 301 302 304 303 300 289 283 285 279 264 254 257 264 260 256 245 243 247 242 234 226 223 228 231 240 225 227 236 241 246 248 249 251 255 261 264 265 266 269 269 268
305 301 299 299 297 302 313 314 299 284 280 275 268 261 256 254 248 248 270 259 236 252 253 240 247 251 257 252 231 234 241 245 250 250 250 251 254 258 263 265 266 268 269 269
303 304 302 302 307 314 313 311 310 300 285 281 271 259 254 266 277 255 240 258 267 274 263 258 265 266 272 256 243 245 249 252 253 253 253 255 256 258 261 264 267 268 268 270
296 297 303 310 308 298 292 299 308 305 299 298 295 285 267 242 247 263 265 262 273 288 278 272 275 276 271 252 250 252 253 254 256 257 252 256 259 262 265 265 265 267 269 269
289 292 293 289 285 285 287 292 296 296 299 305 308 304 300 290 269 271 274 272 272 288 286 275 270 273 261 255 256 258 259 266 269 265 257 258 260 263 265 265 267 268 269 270
292 290 298 307 303 295 292 290 287 292 294 291 297 301 302 300 294 287 284 287 289 288 284 278 270 264 263 262 264 265 264 261 259 260 261 261 262 263 265 265 267 268 268 269
Height
1498 1494 1493 1492 1490 1489 1491 1490 1489 1479 1474 1469 1467 1468 1468 1469 1470 1471 1471 1472 1473 1474 1475 1476 1477 1478 1479 1480 1481 1482 1483 1484 1484 1484 1484 1484 1484 1484 1484 1484 1483 1483 1483 1483
1500 1493 1492 1489 1484 1483 1483 1481 1479 1476 1472 1466 1465 1466 1466 1467 1468 1468 1469 1470 1471 1472 1473 1473 1474 1476 1477 1478 1479 1479 1480 1481 1481 1481 1481 1481 1481 1481 1480 1480 1480 1480 1479 1479
1501 1491 1491 1489 1475 1474 1474 1472 1472 1473 1468 1464 1464 1464 1464 1465 1465 1466 1466 1467 1468 1469 1470 1471 1472 1473 1474 1475 1476 1476 1477 1477 1478 1478 1478 1478 1478 1477 1477 1477 1476 1476 1476 1475
1502 1497 1496 1475 1468 1467 1467 1466 1466 1464 1463 1463 1463 1463 1463 1463 1464 1464 1464 1465 1465 1466 1467 1468 1469 1470 1471 1472 1473 1473 1474 1474 1474 1475 1475 1475 1475 1474 1474 1473 1473 1473 1472 1472
1502 1497 1483 1471 1468 1467 1468 1467 1462 1462 1461 1462 1462 1462 1461 1461 1461 1462 1462 1462 1462 1463 1464 1465 1466 1467 1468 1469 1470 1470 1471 1471 1471 1471 1472 1472 1471 1471 1471 1470 1469 1469 1468 1468
1498 1495 1485 1470 1468 1467 1469 1469 1462 1460 1461 1461 1461 1465 1462 1459 1459 1459 1460 1460 1460 1460 1461 1462 1463 1464 1465 1466 1467 1467 1468 1468 1468 1468 1468 1468 1468 1468 1467 1466 1466 1465 1464 1463
1497 1492 1479 1468 1467 1468 1473 1468 1462 1461 1460 1460 1460 1461 1459 1458 1457 1457 1457 1457 1457 1457 1458 1459 1460 1461 1462 1462 1463 1464 1465 1465 1465 1465 1465 1465 1464 1464 1463 1462 1461 1461 1460 1459
1491 1490 1481 1467 1467 1469 1466 1462 1460 1460 1459 1459 1458 1457 1456 1456 1455 1455 1455 1454 1454 1454 1455 1456 1457 1458 1458 1459 1460 1461 1461 1461 1461 1461 1461 1461 1461 1460 1459 1458 1457 1456 1455 1454
1478 1474 1465 1463 1463 1462 1461 1460 1459 1458 1457 1457 1456 1455 1454 1453 1453 1452 1452 1452 1451 1452 1452 1452 1453 1454 1455 1456 1456 1457 1457 1457 1458 1458 1458 1457 1457 1456 1455 1454 1453 1452 1451 1450
1470 1464 1461 1460 1460 1459 1459 1458 1457 1455 1455 1454 1453 1452 1451 1450 1450 1449 1449 1448 1448 1448 1448 1449 1450 1451 1452 1452 1453 1453 1453 1454 1454 1454 1453 1453 1452 1452 1451 1450 1449 1448 1447 1445
1467 1462 1460 1457 1457 1457 1455 1454 1453 1452 1451 1450 1449 1448 1447 1447 1446 1445 1445 1445 1445 1445 1445 1446 1446 1447 1448 1449 1449 1449 1450 1450 1450 1450 1449 1449 1448 1448 1446 1446 1445 1444 1442 1441
1462 1459 1458 1455 1454 1454 1452 1451 1450 1449 1447 1446 1445 1444 1443 1442 1442 1441 1441 1441 1441 1441 1441 1442 1443 1443 1444 1445 1445 1445 1445 1445 1445 1445 1445 1444 1443 1443 1442 1441 1440 1439 1437 1436
1455 1454 1453 1451 1450 1449 1448 1447 1445 1444 1443 1441 1440 1439 1438 1438 1437 1437 1437 1437 1437 1437 1437 1438 1438 1439 1440 1440 1440 1441 1441 1441 1441 1440 1440 1439 1439 1437 1436 1436 1435 1434 1432 1431
1450 1449 1447 1445 1445 1444 1443 1441 1440 1439 1438 1437 1436 1435 1434 1433 1432 1432 1432 1432 1433 1433 1433 1433 1434 1435 1435 1436 1436 1436 1436 1436 1436 1435 1435 1435 1434 1433 1432 1430 1429 1427 1427 1426
1444 1443 1442 1440 1439 1438 1438 1436 1435 1433 1433 1432 1431 1430 1429 1428 1428 1428 1428 1428 1428 1428 1428 1429 1429 1430 1431 1431 1431 1431 1431 1431 1431 1431 1430 1430 1429 1428 1427 1426 1424 1422 1421 1420
1438 1437 1436 1435 1434 1433 1432 1431 1430 1429 1428 1427 1426 1425 1425 1424 1424 1423 1424 1424 1424 1423 1424 1424 1424 1425 1426 1426 1426 1426 1426 1426 1426 1426 1425 1425 1424 1423 1422 1421 1419 1417 1416 1414
1433 1431 1431 1430 1429 1428 1427 1427 1426 1424 1423 1422 1421 1421 1420 1420 1419 1419 1419 1419 1420 1419 1419 1419 1420 1420 1421 1421 1421 1421 1421 1421 1421 1421 1420 1420 1419 1418 1417 1415 1414 1412 1411 1410
1429 1428 1427 1426 1425 1423 1422 1422 1421 1419 1418 1417 1416 1416 1415 1415 1414 1414 1415 1415 1415 1415 1415 1415 1415 1415 1416 1416 1416 1416 1416 1416 1416 1415 1415 1414 1414 1413 1411 1410 1408 1407 1405 1404
1425 1424 1423 1422 1421 1419 1418 1417 1416 1415 1414 1413 1412 1411 1411 1411 1411 1410 1410 1410 1410 1410 1410 1411 1411 1411 1411 1411 1411 1411 1411 1411 1411 1410 1410 1409 1408 1407 1406 1404 1403 1401 1400 1398
1421 1420 1419 1417 1416 1415 1414 1412 1411 1410 1410 1409 1408 1408 1407 1407 1407 1407 1406 1406 1406 1406 1406 1407 1407 1407 1407 1407 1407 1407 1406 1406 1406 1405 1405 1404 1403 1401 1400 1399 1397 1396 1394 1392
1418 1417 1415 1414 1413 1411 1410 1409 1407 1406 1406 1405 1405 1404 1404 1404 1404 1403 1403 1402 1403 1403 1403 1403 1403 1402 1402 1402 1402 1402 1402 1401 1401 1400 1399 1398 1397 1396 1395 1393 1392 1390 1388 1386
1415 1414 1412 1411 1409 1408 1407 1405 1404 1403 1402 1402 1402 1401 1401 1400 1400 1400 1399 1399 1399 1399 1399 1398 1398 1398 1398 1397 1397 1397 1396 1396 1395 1394 1394 1393 1391 1390 1389 1387 1386 1384 1382 1381
1413 1412 1410 1409 1407 1405 1403 1402 1402 1400 1400 1399 1398 1398 1398 1397 1397 1396 1395 1395 1395 1395 1394 1394 1394 1393 1393 1392 1392 1392 1391 1390 1390 1389 1388 1387 1386 1384 1383 1381 1380 1378 1376 1375
1411 1410 1408 1406 1405 1403 1401 1400 1399 1398 1397 1396 1396 1395 1394 1393 1393 1392 1392 1391 1391 1390 1390 1389 1389 1389 1388 1387 1387 1386 1385 1385 1384 1383 1382 1381 1380 1378 1377 1375 1373 1372 1370 1369
1409 1408 1406 1404 1402 1401 1399 1398 1397 1395 1394 1393 1392 1392 1391 1390 1390 1389 1388 1387 1386 1386 1385 1385 1385 1384 1383 1382 1382 1381 1380 1379 1379 1377 1376 1375 1374 1372 1371 1369 1368 1366 1364 1363
1407 1405 1404 1402 1401 1399 1397 1396 1394 1393 1392 1390 1389 1389 1388 1387 1386 1385 1384 1383 1383 1382 1381 1381 1380 1379 1378 1378 1377 1376 1375 1374 1373 1371 1370 1369 1368 1366 1365 1363 1362 1360 1359 1357
1404 1403 1401 1399 1398 1397 1396 1394 1393 1391 1390 1388 1387 1386 1385 1384 1383 1382 1381 1380 1379 1378 1377 1377 1376 1375 1374 1373 1371 1370 1369 1368 1367 1366 1364 1363 1362 1360 1359 1358 1356 1355 1353 1352